<?xml version="1.0" encoding="UTF-8" standalone="no" ?>
<gpx xmlns="http://www.topografix.com/GPX/1/1" xmlns:xsi="http://www.w3.org/2001/XMLSchema-instance" xsi:schemaLocation="http://www.topografix.com/GPX/1/1 http://www.topografix.com/GPX/1/1/gpx.xsd" version="1.1" creator="VisuGPX - https://www.visugpx.com">
  <metadata>
    <name>Réunion_Boucle petite ravine_Barrage</name>
    <desc><![CDATA[Le tour par le barrage du bras de la plaine en partant du chemin de la petite ravine à bras de pontho.]]></desc>
  </metadata>
  <wpt lat="-21.23625" lon="55.50012">
    <ele>758.36010742188</ele>
    <name><![CDATA[001]]></name>
    <desc><![CDATA[14-JAN-13 7:39:01]]></desc>
    <cmt><![CDATA[14-JAN-13 7:39:01]]></cmt>
  </wpt>
  <wpt lat="-21.2277" lon="55.49903">
    <ele>380.08410644531</ele>
    <name><![CDATA[002]]></name>
    <desc><![CDATA[14-JAN-13 8:15:57]]></desc>
    <cmt><![CDATA[14-JAN-13 8:15:57]]></cmt>
  </wpt>
  <wpt lat="-21.22474" lon="55.50353">
    <ele>410.60559082031</ele>
    <name><![CDATA[003]]></name>
    <desc><![CDATA[14-JAN-13 8:24:55]]></desc>
    <cmt><![CDATA[14-JAN-13 8:24:55]]></cmt>
  </wpt>
  <wpt lat="-21.21708" lon="55.50625">
    <ele>442.32897949219</ele>
    <name><![CDATA[004]]></name>
    <desc><![CDATA[14-JAN-13 8:40:18]]></desc>
    <cmt><![CDATA[14-JAN-13 8:40:18]]></cmt>
  </wpt>
  <wpt lat="-21.22966" lon="55.49736">
    <ele>376.23876953125</ele>
    <name><![CDATA[005]]></name>
    <desc><![CDATA[14-JAN-13 9:16:26]]></desc>
    <cmt><![CDATA[14-JAN-13 9:16:26]]></cmt>
  </wpt>
  <wpt lat="-21.22969" lon="55.49734">
    <ele>376.95983886719</ele>
    <name><![CDATA[006]]></name>
    <desc><![CDATA[14-JAN-13 9:16:28]]></desc>
    <cmt><![CDATA[14-JAN-13 9:16:28]]></cmt>
  </wpt>
  <wpt lat="-21.22999" lon="55.49695">
    <ele>377.92102050781</ele>
    <name><![CDATA[007]]></name>
    <desc><![CDATA[14-JAN-13 9:18:37]]></desc>
    <cmt><![CDATA[14-JAN-13 9:18:37]]></cmt>
  </wpt>
  <wpt lat="-21.23092" lon="55.49675">
    <ele>460.83422851562</ele>
    <name><![CDATA[008]]></name>
    <desc><![CDATA[14-JAN-13 9:24:03]]></desc>
    <cmt><![CDATA[14-JAN-13 9:24:03]]></cmt>
  </wpt>
  <wpt lat="-21.23211" lon="55.49807">
    <ele>570.6640625</ele>
    <name><![CDATA[009]]></name>
    <desc><![CDATA[14-JAN-13 9:31:49]]></desc>
    <cmt><![CDATA[14-JAN-13 9:31:49]]></cmt>
  </wpt>
  <trk>
    <name><![CDATA[ACTIVE LOG 001]]></name>
    <trkseg>
      <trkpt lat="-21.23626" lon="55.50016">
        <ele>759.09814453125</ele>
        <time>2013-01-14T03:39:30Z</time>
      </trkpt>
      <trkpt lat="-21.23616" lon="55.50031">
        <ele>760.5400390625</ele>
        <time>2013-01-14T03:39:40Z</time>
      </trkpt>
      <trkpt lat="-21.23605" lon="55.50054">
        <ele>762.943359375</ele>
        <time>2013-01-14T03:39:55Z</time>
      </trkpt>
      <trkpt lat="-21.23605" lon="55.50055">
        <ele>762.943359375</ele>
        <time>2013-01-14T03:39:59Z</time>
      </trkpt>
      <trkpt lat="-21.23606" lon="55.50073">
        <ele>763.90454101562</ele>
        <time>2013-01-14T03:40:13Z</time>
      </trkpt>
      <trkpt lat="-21.23607" lon="55.50079">
        <ele>765.82763671875</ele>
        <time>2013-01-14T03:40:16Z</time>
      </trkpt>
      <trkpt lat="-21.23607" lon="55.50079">
        <ele>766.30810546875</ele>
        <time>2013-01-14T03:40:18Z</time>
      </trkpt>
      <trkpt lat="-21.23608" lon="55.50087">
        <ele>766.78881835938</ele>
        <time>2013-01-14T03:40:26Z</time>
      </trkpt>
      <trkpt lat="-21.23601" lon="55.50097">
        <ele>768.71142578125</ele>
        <time>2013-01-14T03:40:30Z</time>
      </trkpt>
      <trkpt lat="-21.2359" lon="55.50099">
        <ele>770.1533203125</ele>
        <time>2013-01-14T03:40:41Z</time>
      </trkpt>
      <trkpt lat="-21.2359" lon="55.50099">
        <ele>770.1533203125</ele>
        <time>2013-01-14T03:40:45Z</time>
      </trkpt>
      <trkpt lat="-21.23574" lon="55.50104">
        <ele>770.1533203125</ele>
        <time>2013-01-14T03:40:53Z</time>
      </trkpt>
      <trkpt lat="-21.23572" lon="55.50105">
        <ele>769.6728515625</ele>
        <time>2013-01-14T03:41:03Z</time>
      </trkpt>
      <trkpt lat="-21.23547" lon="55.501">
        <ele>770.1533203125</ele>
        <time>2013-01-14T03:41:11Z</time>
      </trkpt>
      <trkpt lat="-21.23547" lon="55.501">
        <ele>769.6728515625</ele>
        <time>2013-01-14T03:41:16Z</time>
      </trkpt>
      <trkpt lat="-21.2353" lon="55.50089">
        <ele>768.71142578125</ele>
        <time>2013-01-14T03:41:28Z</time>
      </trkpt>
      <trkpt lat="-21.23524" lon="55.50085">
        <ele>768.71142578125</ele>
        <time>2013-01-14T03:41:31Z</time>
      </trkpt>
      <trkpt lat="-21.23521" lon="55.50082">
        <ele>769.19213867188</ele>
        <time>2013-01-14T03:41:33Z</time>
      </trkpt>
      <trkpt lat="-21.23521" lon="55.50082">
        <ele>769.19213867188</ele>
        <time>2013-01-14T03:41:40Z</time>
      </trkpt>
      <trkpt lat="-21.23496" lon="55.50064">
        <ele>767.75</ele>
        <time>2013-01-14T03:41:54Z</time>
      </trkpt>
      <trkpt lat="-21.23484" lon="55.50058">
        <ele>767.75</ele>
        <time>2013-01-14T03:42:02Z</time>
      </trkpt>
      <trkpt lat="-21.23481" lon="55.50056">
        <ele>767.75</ele>
        <time>2013-01-14T03:42:04Z</time>
      </trkpt>
      <trkpt lat="-21.23476" lon="55.50053">
        <ele>767.26953125</ele>
        <time>2013-01-14T03:42:08Z</time>
      </trkpt>
      <trkpt lat="-21.23472" lon="55.5005">
        <ele>767.26953125</ele>
        <time>2013-01-14T03:42:11Z</time>
      </trkpt>
      <trkpt lat="-21.23454" lon="55.50038">
        <ele>764.38549804688</ele>
        <time>2013-01-14T03:42:27Z</time>
      </trkpt>
      <trkpt lat="-21.23449" lon="55.50035">
        <ele>763.90454101562</ele>
        <time>2013-01-14T03:42:31Z</time>
      </trkpt>
      <trkpt lat="-21.23447" lon="55.50034">
        <ele>763.42407226562</ele>
        <time>2013-01-14T03:42:33Z</time>
      </trkpt>
      <trkpt lat="-21.23447" lon="55.50034">
        <ele>762.46264648438</ele>
        <time>2013-01-14T03:42:36Z</time>
      </trkpt>
      <trkpt lat="-21.23447" lon="55.50034">
        <ele>760.05932617188</ele>
        <time>2013-01-14T03:42:46Z</time>
      </trkpt>
      <trkpt lat="-21.23434" lon="55.50024">
        <ele>759.57885742188</ele>
        <time>2013-01-14T03:42:52Z</time>
      </trkpt>
      <trkpt lat="-21.23416" lon="55.50011">
        <ele>759.09814453125</ele>
        <time>2013-01-14T03:43:01Z</time>
      </trkpt>
      <trkpt lat="-21.2341" lon="55.50007">
        <ele>758.13696289062</ele>
        <time>2013-01-14T03:43:14Z</time>
      </trkpt>
      <trkpt lat="-21.2341" lon="55.50007">
        <ele>754.77221679688</ele>
        <time>2013-01-14T03:43:29Z</time>
      </trkpt>
      <trkpt lat="-21.2341" lon="55.50007">
        <ele>753.81103515625</ele>
        <time>2013-01-14T03:43:31Z</time>
      </trkpt>
      <trkpt lat="-21.2341" lon="55.50007">
        <ele>751.40771484375</ele>
        <time>2013-01-14T03:43:48Z</time>
      </trkpt>
      <trkpt lat="-21.2341" lon="55.50007">
        <ele>749.48510742188</ele>
        <time>2013-01-14T03:43:59Z</time>
      </trkpt>
      <trkpt lat="-21.23405" lon="55.50004">
        <ele>745.6396484375</ele>
        <time>2013-01-14T03:44:14Z</time>
      </trkpt>
      <trkpt lat="-21.23405" lon="55.50004">
        <ele>742.27514648438</ele>
        <time>2013-01-14T03:44:25Z</time>
      </trkpt>
      <trkpt lat="-21.23405" lon="55.50004">
        <ele>738.91064453125</ele>
        <time>2013-01-14T03:44:41Z</time>
      </trkpt>
      <trkpt lat="-21.23405" lon="55.50004">
        <ele>735.5458984375</ele>
        <time>2013-01-14T03:45:02Z</time>
      </trkpt>
      <trkpt lat="-21.23405" lon="55.50004">
        <ele>732.662109375</ele>
        <time>2013-01-14T03:45:25Z</time>
      </trkpt>
      <trkpt lat="-21.23405" lon="55.50004">
        <ele>730.25854492188</ele>
        <time>2013-01-14T03:45:36Z</time>
      </trkpt>
      <trkpt lat="-21.23405" lon="55.50004">
        <ele>728.3359375</ele>
        <time>2013-01-14T03:45:40Z</time>
      </trkpt>
      <trkpt lat="-21.23405" lon="55.50004">
        <ele>725.9326171875</ele>
        <time>2013-01-14T03:45:52Z</time>
      </trkpt>
      <trkpt lat="-21.23405" lon="55.50004">
        <ele>725.45190429688</ele>
        <time>2013-01-14T03:45:54Z</time>
      </trkpt>
      <trkpt lat="-21.23405" lon="55.50004">
        <ele>724.97143554688</ele>
        <time>2013-01-14T03:45:56Z</time>
      </trkpt>
      <trkpt lat="-21.23405" lon="55.50004">
        <ele>721.60668945312</ele>
        <time>2013-01-14T03:46:05Z</time>
      </trkpt>
      <trkpt lat="-21.23405" lon="55.50004">
        <ele>718.72290039062</ele>
        <time>2013-01-14T03:46:19Z</time>
      </trkpt>
      <trkpt lat="-21.23405" lon="55.50004">
        <ele>716.31958007812</ele>
        <time>2013-01-14T03:46:31Z</time>
      </trkpt>
      <trkpt lat="-21.23405" lon="55.50004">
        <ele>713.916015625</ele>
        <time>2013-01-14T03:46:36Z</time>
      </trkpt>
      <trkpt lat="-21.23323" lon="55.49896">
        <ele>710.55151367188</ele>
        <time>2013-01-14T03:46:51Z</time>
      </trkpt>
      <trkpt lat="-21.23323" lon="55.49896">
        <ele>710.55151367188</ele>
        <time>2013-01-14T03:46:52Z</time>
      </trkpt>
      <trkpt lat="-21.23323" lon="55.49896">
        <ele>706.70629882812</ele>
        <time>2013-01-14T03:47:07Z</time>
      </trkpt>
      <trkpt lat="-21.23323" lon="55.49896">
        <ele>703.82250976562</ele>
        <time>2013-01-14T03:47:17Z</time>
      </trkpt>
      <trkpt lat="-21.23311" lon="55.49849">
        <ele>700.9384765625</ele>
        <time>2013-01-14T03:47:27Z</time>
      </trkpt>
      <trkpt lat="-21.23314" lon="55.49847">
        <ele>700.4580078125</ele>
        <time>2013-01-14T03:47:29Z</time>
      </trkpt>
      <trkpt lat="-21.23326" lon="55.49856">
        <ele>697.57373046875</ele>
        <time>2013-01-14T03:47:46Z</time>
      </trkpt>
      <trkpt lat="-21.23327" lon="55.49856">
        <ele>696.1318359375</ele>
        <time>2013-01-14T03:47:48Z</time>
      </trkpt>
      <trkpt lat="-21.23336" lon="55.49861">
        <ele>693.24780273438</ele>
        <time>2013-01-14T03:48:02Z</time>
      </trkpt>
      <trkpt lat="-21.23344" lon="55.49871">
        <ele>692.28662109375</ele>
        <time>2013-01-14T03:48:13Z</time>
      </trkpt>
      <trkpt lat="-21.2335" lon="55.49873">
        <ele>689.40258789062</ele>
        <time>2013-01-14T03:48:26Z</time>
      </trkpt>
      <trkpt lat="-21.23354" lon="55.49873">
        <ele>686.0380859375</ele>
        <time>2013-01-14T03:48:40Z</time>
      </trkpt>
      <trkpt lat="-21.23353" lon="55.49862">
        <ele>682.67333984375</ele>
        <time>2013-01-14T03:48:53Z</time>
      </trkpt>
      <trkpt lat="-21.23351" lon="55.49854">
        <ele>679.30859375</ele>
        <time>2013-01-14T03:49:03Z</time>
      </trkpt>
      <trkpt lat="-21.23342" lon="55.49845">
        <ele>675.46337890625</ele>
        <time>2013-01-14T03:49:15Z</time>
      </trkpt>
      <trkpt lat="-21.23336" lon="55.49835">
        <ele>673.541015625</ele>
        <time>2013-01-14T03:49:23Z</time>
      </trkpt>
      <trkpt lat="-21.23332" lon="55.49827">
        <ele>670.17626953125</ele>
        <time>2013-01-14T03:49:35Z</time>
      </trkpt>
      <trkpt lat="-21.23342" lon="55.49822">
        <ele>667.29223632812</ele>
        <time>2013-01-14T03:49:53Z</time>
      </trkpt>
      <trkpt lat="-21.23344" lon="55.49823">
        <ele>664.408203125</ele>
        <time>2013-01-14T03:50:03Z</time>
      </trkpt>
      <trkpt lat="-21.23341" lon="55.49816">
        <ele>664.408203125</ele>
        <time>2013-01-14T03:50:19Z</time>
      </trkpt>
      <trkpt lat="-21.23342" lon="55.49813">
        <ele>664.408203125</ele>
        <time>2013-01-14T03:50:22Z</time>
      </trkpt>
      <trkpt lat="-21.23345" lon="55.49824">
        <ele>662.48559570312</ele>
        <time>2013-01-14T03:50:25Z</time>
      </trkpt>
      <trkpt lat="-21.23354" lon="55.4982">
        <ele>660.56298828125</ele>
        <time>2013-01-14T03:50:37Z</time>
      </trkpt>
      <trkpt lat="-21.2335" lon="55.4981">
        <ele>657.19848632812</ele>
        <time>2013-01-14T03:50:49Z</time>
      </trkpt>
      <trkpt lat="-21.23345" lon="55.49807">
        <ele>653.833984375</ele>
        <time>2013-01-14T03:50:59Z</time>
      </trkpt>
      <trkpt lat="-21.23345" lon="55.49806">
        <ele>653.833984375</ele>
        <time>2013-01-14T03:51:00Z</time>
      </trkpt>
      <trkpt lat="-21.23337" lon="55.49803">
        <ele>651.43041992188</ele>
        <time>2013-01-14T03:51:11Z</time>
      </trkpt>
      <trkpt lat="-21.23318" lon="55.49797">
        <ele>647.58520507812</ele>
        <time>2013-01-14T03:51:28Z</time>
      </trkpt>
      <trkpt lat="-21.23309" lon="55.49793">
        <ele>644.701171875</ele>
        <time>2013-01-14T03:51:38Z</time>
      </trkpt>
      <trkpt lat="-21.2331" lon="55.49792">
        <ele>642.77880859375</ele>
        <time>2013-01-14T03:51:47Z</time>
      </trkpt>
      <trkpt lat="-21.23325" lon="55.4979">
        <ele>639.89477539062</ele>
        <time>2013-01-14T03:51:58Z</time>
      </trkpt>
      <trkpt lat="-21.2334" lon="55.49786">
        <ele>636.04956054688</ele>
        <time>2013-01-14T03:52:15Z</time>
      </trkpt>
      <trkpt lat="-21.23343" lon="55.49792">
        <ele>632.68481445312</ele>
        <time>2013-01-14T03:52:29Z</time>
      </trkpt>
      <trkpt lat="-21.23342" lon="55.49788">
        <ele>629.80078125</ele>
        <time>2013-01-14T03:52:40Z</time>
      </trkpt>
      <trkpt lat="-21.23334" lon="55.49776">
        <ele>626.9169921875</ele>
        <time>2013-01-14T03:52:49Z</time>
      </trkpt>
      <trkpt lat="-21.23341" lon="55.49766">
        <ele>624.513671875</ele>
        <time>2013-01-14T03:53:00Z</time>
      </trkpt>
      <trkpt lat="-21.23341" lon="55.49762">
        <ele>623.07177734375</ele>
        <time>2013-01-14T03:53:05Z</time>
      </trkpt>
      <trkpt lat="-21.2334" lon="55.49764">
        <ele>622.1103515625</ele>
        <time>2013-01-14T03:53:09Z</time>
      </trkpt>
      <trkpt lat="-21.23339" lon="55.49763">
        <ele>620.66845703125</ele>
        <time>2013-01-14T03:53:12Z</time>
      </trkpt>
      <trkpt lat="-21.23331" lon="55.49763">
        <ele>617.3037109375</ele>
        <time>2013-01-14T03:53:22Z</time>
      </trkpt>
      <trkpt lat="-21.23326" lon="55.49765">
        <ele>615.38110351562</ele>
        <time>2013-01-14T03:53:30Z</time>
      </trkpt>
      <trkpt lat="-21.23326" lon="55.49762">
        <ele>613.93896484375</ele>
        <time>2013-01-14T03:53:33Z</time>
      </trkpt>
      <trkpt lat="-21.2333" lon="55.49758">
        <ele>611.05517578125</ele>
        <time>2013-01-14T03:53:40Z</time>
      </trkpt>
      <trkpt lat="-21.23329" lon="55.4975">
        <ele>609.13256835938</ele>
        <time>2013-01-14T03:53:48Z</time>
      </trkpt>
      <trkpt lat="-21.23323" lon="55.49753">
        <ele>608.17138671875</ele>
        <time>2013-01-14T03:53:53Z</time>
      </trkpt>
      <trkpt lat="-21.23319" lon="55.49758">
        <ele>606.24853515625</ele>
        <time>2013-01-14T03:53:56Z</time>
      </trkpt>
      <trkpt lat="-21.23315" lon="55.49758">
        <ele>604.326171875</ele>
        <time>2013-01-14T03:54:03Z</time>
      </trkpt>
      <trkpt lat="-21.23314" lon="55.49758">
        <ele>603.36450195312</ele>
        <time>2013-01-14T03:54:04Z</time>
      </trkpt>
      <trkpt lat="-21.23308" lon="55.49752">
        <ele>600.96118164062</ele>
        <time>2013-01-14T03:54:10Z</time>
      </trkpt>
      <trkpt lat="-21.23304" lon="55.49746">
        <ele>597.11596679688</ele>
        <time>2013-01-14T03:54:23Z</time>
      </trkpt>
      <trkpt lat="-21.23303" lon="55.49746">
        <ele>597.11596679688</ele>
        <time>2013-01-14T03:54:24Z</time>
      </trkpt>
      <trkpt lat="-21.23294" lon="55.49753">
        <ele>594.23217773438</ele>
        <time>2013-01-14T03:54:38Z</time>
      </trkpt>
      <trkpt lat="-21.23293" lon="55.49755">
        <ele>593.75146484375</ele>
        <time>2013-01-14T03:54:41Z</time>
      </trkpt>
      <trkpt lat="-21.23293" lon="55.49758">
        <ele>590.86743164062</ele>
        <time>2013-01-14T03:54:49Z</time>
      </trkpt>
      <trkpt lat="-21.23291" lon="55.49751">
        <ele>589.90625</ele>
        <time>2013-01-14T03:54:54Z</time>
      </trkpt>
      <trkpt lat="-21.23301" lon="55.49749">
        <ele>589.90625</ele>
        <time>2013-01-14T03:54:58Z</time>
      </trkpt>
      <trkpt lat="-21.2331" lon="55.4975">
        <ele>586.06079101562</ele>
        <time>2013-01-14T03:55:07Z</time>
      </trkpt>
      <trkpt lat="-21.23308" lon="55.49749">
        <ele>585.580078125</ele>
        <time>2013-01-14T03:55:09Z</time>
      </trkpt>
      <trkpt lat="-21.23295" lon="55.49748">
        <ele>585.580078125</ele>
        <time>2013-01-14T03:55:15Z</time>
      </trkpt>
      <trkpt lat="-21.2329" lon="55.49751">
        <ele>582.6962890625</ele>
        <time>2013-01-14T03:55:21Z</time>
      </trkpt>
      <trkpt lat="-21.23282" lon="55.49758">
        <ele>580.29296875</ele>
        <time>2013-01-14T03:55:33Z</time>
      </trkpt>
      <trkpt lat="-21.23276" lon="55.4976">
        <ele>578.85107421875</ele>
        <time>2013-01-14T03:55:37Z</time>
      </trkpt>
      <trkpt lat="-21.23265" lon="55.49768">
        <ele>576.92846679688</ele>
        <time>2013-01-14T03:55:49Z</time>
      </trkpt>
      <trkpt lat="-21.23254" lon="55.49771">
        <ele>573.56396484375</ele>
        <time>2013-01-14T03:56:00Z</time>
      </trkpt>
      <trkpt lat="-21.23242" lon="55.49776">
        <ele>572.12182617188</ele>
        <time>2013-01-14T03:56:09Z</time>
      </trkpt>
      <trkpt lat="-21.23228" lon="55.49783">
        <ele>568.75708007812</ele>
        <time>2013-01-14T03:56:23Z</time>
      </trkpt>
      <trkpt lat="-21.23214" lon="55.49786">
        <ele>567.31518554688</ele>
        <time>2013-01-14T03:56:34Z</time>
      </trkpt>
      <trkpt lat="-21.23204" lon="55.49795">
        <ele>564.91186523438</ele>
        <time>2013-01-14T03:56:43Z</time>
      </trkpt>
      <trkpt lat="-21.23203" lon="55.49797">
        <ele>564.43115234375</ele>
        <time>2013-01-14T03:56:45Z</time>
      </trkpt>
      <trkpt lat="-21.23204" lon="55.498">
        <ele>564.43115234375</ele>
        <time>2013-01-14T03:56:47Z</time>
      </trkpt>
      <trkpt lat="-21.23201" lon="55.49801">
        <ele>562.50854492188</ele>
        <time>2013-01-14T03:56:57Z</time>
      </trkpt>
      <trkpt lat="-21.23199" lon="55.49799">
        <ele>561.06665039062</ele>
        <time>2013-01-14T03:57:00Z</time>
      </trkpt>
      <trkpt lat="-21.23199" lon="55.4979">
        <ele>558.18286132812</ele>
        <time>2013-01-14T03:57:07Z</time>
      </trkpt>
      <trkpt lat="-21.23204" lon="55.49779">
        <ele>556.26000976562</ele>
        <time>2013-01-14T03:57:15Z</time>
      </trkpt>
      <trkpt lat="-21.23204" lon="55.49775">
        <ele>551.93408203125</ele>
        <time>2013-01-14T03:57:28Z</time>
      </trkpt>
      <trkpt lat="-21.23204" lon="55.49778">
        <ele>551.93408203125</ele>
        <time>2013-01-14T03:57:29Z</time>
      </trkpt>
      <trkpt lat="-21.23209" lon="55.49779">
        <ele>550.4921875</ele>
        <time>2013-01-14T03:57:35Z</time>
      </trkpt>
      <trkpt lat="-21.23215" lon="55.49773">
        <ele>547.60815429688</ele>
        <time>2013-01-14T03:57:43Z</time>
      </trkpt>
      <trkpt lat="-21.23218" lon="55.49767">
        <ele>545.20483398438</ele>
        <time>2013-01-14T03:57:50Z</time>
      </trkpt>
      <trkpt lat="-21.23206" lon="55.49767">
        <ele>541.84020996094</ele>
        <time>2013-01-14T03:58:04Z</time>
      </trkpt>
      <trkpt lat="-21.23204" lon="55.49768">
        <ele>540.39831542969</ele>
        <time>2013-01-14T03:58:06Z</time>
      </trkpt>
      <trkpt lat="-21.23197" lon="55.49778">
        <ele>537.51428222656</ele>
        <time>2013-01-14T03:58:18Z</time>
      </trkpt>
      <trkpt lat="-21.23192" lon="55.4978">
        <ele>534.63037109375</ele>
        <time>2013-01-14T03:58:28Z</time>
      </trkpt>
      <trkpt lat="-21.23195" lon="55.49778">
        <ele>531.26574707031</ele>
        <time>2013-01-14T03:58:40Z</time>
      </trkpt>
      <trkpt lat="-21.23202" lon="55.49773">
        <ele>530.78515625</ele>
        <time>2013-01-14T03:58:43Z</time>
      </trkpt>
      <trkpt lat="-21.23214" lon="55.49767">
        <ele>526.93981933594</ele>
        <time>2013-01-14T03:58:56Z</time>
      </trkpt>
      <trkpt lat="-21.23213" lon="55.49764">
        <ele>525.97839355469</ele>
        <time>2013-01-14T03:58:59Z</time>
      </trkpt>
      <trkpt lat="-21.2321" lon="55.4976">
        <ele>524.53649902344</ele>
        <time>2013-01-14T03:59:04Z</time>
      </trkpt>
      <trkpt lat="-21.232" lon="55.49753">
        <ele>521.17199707031</ele>
        <time>2013-01-14T03:59:16Z</time>
      </trkpt>
      <trkpt lat="-21.23191" lon="55.49757">
        <ele>517.80725097656</ele>
        <time>2013-01-14T03:59:28Z</time>
      </trkpt>
      <trkpt lat="-21.23183" lon="55.49768">
        <ele>514.44262695312</ele>
        <time>2013-01-14T03:59:40Z</time>
      </trkpt>
      <trkpt lat="-21.23181" lon="55.4977">
        <ele>514.44262695312</ele>
        <time>2013-01-14T03:59:41Z</time>
      </trkpt>
      <trkpt lat="-21.23176" lon="55.49776">
        <ele>515.40405273438</ele>
        <time>2013-01-14T03:59:57Z</time>
      </trkpt>
      <trkpt lat="-21.2317" lon="55.49773">
        <ele>516.365234375</ele>
        <time>2013-01-14T04:00:00Z</time>
      </trkpt>
      <trkpt lat="-21.23164" lon="55.49769">
        <ele>516.365234375</ele>
        <time>2013-01-14T04:00:03Z</time>
      </trkpt>
      <trkpt lat="-21.23155" lon="55.49765">
        <ele>515.88464355469</ele>
        <time>2013-01-14T04:00:09Z</time>
      </trkpt>
      <trkpt lat="-21.23147" lon="55.49762">
        <ele>512.03942871094</ele>
        <time>2013-01-14T04:00:21Z</time>
      </trkpt>
      <trkpt lat="-21.23146" lon="55.49765">
        <ele>509.63610839844</ele>
        <time>2013-01-14T04:00:34Z</time>
      </trkpt>
      <trkpt lat="-21.23149" lon="55.4976">
        <ele>507.71350097656</ele>
        <time>2013-01-14T04:00:39Z</time>
      </trkpt>
      <trkpt lat="-21.2315" lon="55.49776">
        <ele>504.34887695312</ele>
        <time>2013-01-14T04:00:51Z</time>
      </trkpt>
      <trkpt lat="-21.23146" lon="55.49778">
        <ele>502.90673828125</ele>
        <time>2013-01-14T04:00:55Z</time>
      </trkpt>
      <trkpt lat="-21.23143" lon="55.49775">
        <ele>501.46484375</ele>
        <time>2013-01-14T04:01:00Z</time>
      </trkpt>
      <trkpt lat="-21.2314" lon="55.49767">
        <ele>500.98413085938</ele>
        <time>2013-01-14T04:01:05Z</time>
      </trkpt>
      <trkpt lat="-21.23123" lon="55.49756">
        <ele>497.13891601562</ele>
        <time>2013-01-14T04:01:19Z</time>
      </trkpt>
      <trkpt lat="-21.23118" lon="55.49759">
        <ele>495.69689941406</ele>
        <time>2013-01-14T04:01:24Z</time>
      </trkpt>
      <trkpt lat="-21.231" lon="55.4976">
        <ele>494.25500488281</ele>
        <time>2013-01-14T04:01:36Z</time>
      </trkpt>
      <trkpt lat="-21.23097" lon="55.49759">
        <ele>493.77429199219</ele>
        <time>2013-01-14T04:01:39Z</time>
      </trkpt>
      <trkpt lat="-21.23079" lon="55.49762">
        <ele>490.40979003906</ele>
        <time>2013-01-14T04:01:52Z</time>
      </trkpt>
      <trkpt lat="-21.23078" lon="55.49764">
        <ele>489.92907714844</ele>
        <time>2013-01-14T04:01:55Z</time>
      </trkpt>
      <trkpt lat="-21.23075" lon="55.49763">
        <ele>488.00646972656</ele>
        <time>2013-01-14T04:02:02Z</time>
      </trkpt>
      <trkpt lat="-21.23082" lon="55.49759">
        <ele>484.64184570312</ele>
        <time>2013-01-14T04:02:12Z</time>
      </trkpt>
      <trkpt lat="-21.23085" lon="55.49754">
        <ele>482.71923828125</ele>
        <time>2013-01-14T04:02:19Z</time>
      </trkpt>
      <trkpt lat="-21.2309" lon="55.49757">
        <ele>481.7578125</ele>
        <time>2013-01-14T04:02:21Z</time>
      </trkpt>
      <trkpt lat="-21.23092" lon="55.49755">
        <ele>479.83508300781</ele>
        <time>2013-01-14T04:02:27Z</time>
      </trkpt>
      <trkpt lat="-21.23102" lon="55.49747">
        <ele>475.98986816406</ele>
        <time>2013-01-14T04:02:40Z</time>
      </trkpt>
      <trkpt lat="-21.23106" lon="55.49739">
        <ele>473.58666992188</ele>
        <time>2013-01-14T04:02:48Z</time>
      </trkpt>
      <trkpt lat="-21.23109" lon="55.49726">
        <ele>469.74133300781</ele>
        <time>2013-01-14T04:03:00Z</time>
      </trkpt>
      <trkpt lat="-21.23108" lon="55.49721">
        <ele>467.81872558594</ele>
        <time>2013-01-14T04:03:05Z</time>
      </trkpt>
      <trkpt lat="-21.23106" lon="55.49709">
        <ele>464.4541015625</ele>
        <time>2013-01-14T04:03:15Z</time>
      </trkpt>
      <trkpt lat="-21.23123" lon="55.49701">
        <ele>461.57019042969</ele>
        <time>2013-01-14T04:03:26Z</time>
      </trkpt>
      <trkpt lat="-21.23124" lon="55.49689">
        <ele>459.16687011719</ele>
        <time>2013-01-14T04:03:35Z</time>
      </trkpt>
      <trkpt lat="-21.23119" lon="55.49673">
        <ele>457.24426269531</ele>
        <time>2013-01-14T04:03:46Z</time>
      </trkpt>
      <trkpt lat="-21.23118" lon="55.49669">
        <ele>456.28295898438</ele>
        <time>2013-01-14T04:03:48Z</time>
      </trkpt>
      <trkpt lat="-21.23114" lon="55.49666">
        <ele>455.80224609375</ele>
        <time>2013-01-14T04:03:51Z</time>
      </trkpt>
      <trkpt lat="-21.23108" lon="55.49677">
        <ele>455.32153320312</ele>
        <time>2013-01-14T04:04:00Z</time>
      </trkpt>
      <trkpt lat="-21.23092" lon="55.4967">
        <ele>452.43762207031</ele>
        <time>2013-01-14T04:04:12Z</time>
      </trkpt>
      <trkpt lat="-21.23101" lon="55.49656">
        <ele>450.03442382812</ele>
        <time>2013-01-14T04:04:19Z</time>
      </trkpt>
      <trkpt lat="-21.23102" lon="55.49656">
        <ele>449.07299804688</ele>
        <time>2013-01-14T04:04:20Z</time>
      </trkpt>
      <trkpt lat="-21.23106" lon="55.49651">
        <ele>447.63098144531</ele>
        <time>2013-01-14T04:04:25Z</time>
      </trkpt>
      <trkpt lat="-21.23107" lon="55.49652">
        <ele>447.63098144531</ele>
        <time>2013-01-14T04:04:26Z</time>
      </trkpt>
      <trkpt lat="-21.23108" lon="55.49653">
        <ele>443.78576660156</ele>
        <time>2013-01-14T04:04:38Z</time>
      </trkpt>
      <trkpt lat="-21.23107" lon="55.49653">
        <ele>442.34387207031</ele>
        <time>2013-01-14T04:04:41Z</time>
      </trkpt>
      <trkpt lat="-21.23111" lon="55.49653">
        <ele>438.97912597656</ele>
        <time>2013-01-14T04:04:52Z</time>
      </trkpt>
      <trkpt lat="-21.23111" lon="55.49652">
        <ele>437.05651855469</ele>
        <time>2013-01-14T04:04:58Z</time>
      </trkpt>
      <trkpt lat="-21.23112" lon="55.49642">
        <ele>432.73071289062</ele>
        <time>2013-01-14T04:05:11Z</time>
      </trkpt>
      <trkpt lat="-21.23113" lon="55.4964">
        <ele>430.80798339844</ele>
        <time>2013-01-14T04:05:16Z</time>
      </trkpt>
      <trkpt lat="-21.23114" lon="55.4964">
        <ele>428.40466308594</ele>
        <time>2013-01-14T04:05:22Z</time>
      </trkpt>
      <trkpt lat="-21.23103" lon="55.49643">
        <ele>426.96276855469</ele>
        <time>2013-01-14T04:05:33Z</time>
      </trkpt>
      <trkpt lat="-21.23085" lon="55.49658">
        <ele>424.55944824219</ele>
        <time>2013-01-14T04:05:48Z</time>
      </trkpt>
      <trkpt lat="-21.2308" lon="55.49667">
        <ele>420.71411132812</ele>
        <time>2013-01-14T04:06:00Z</time>
      </trkpt>
      <trkpt lat="-21.23071" lon="55.49675">
        <ele>418.31079101562</ele>
        <time>2013-01-14T04:06:13Z</time>
      </trkpt>
      <trkpt lat="-21.23062" lon="55.49687">
        <ele>416.38818359375</ele>
        <time>2013-01-14T04:06:17Z</time>
      </trkpt>
      <trkpt lat="-21.23059" lon="55.49699">
        <ele>412.54284667969</ele>
        <time>2013-01-14T04:06:32Z</time>
      </trkpt>
      <trkpt lat="-21.23059" lon="55.497">
        <ele>412.54284667969</ele>
        <time>2013-01-14T04:06:33Z</time>
      </trkpt>
      <trkpt lat="-21.2305" lon="55.49694">
        <ele>408.69763183594</ele>
        <time>2013-01-14T04:06:45Z</time>
      </trkpt>
      <trkpt lat="-21.23042" lon="55.497">
        <ele>405.81372070312</ele>
        <time>2013-01-14T04:06:53Z</time>
      </trkpt>
      <trkpt lat="-21.23041" lon="55.49697">
        <ele>405.81372070312</ele>
        <time>2013-01-14T04:06:54Z</time>
      </trkpt>
      <trkpt lat="-21.23044" lon="55.49692">
        <ele>402.44909667969</ele>
        <time>2013-01-14T04:07:07Z</time>
      </trkpt>
      <trkpt lat="-21.23032" lon="55.49685">
        <ele>399.08435058594</ele>
        <time>2013-01-14T04:07:18Z</time>
      </trkpt>
      <trkpt lat="-21.23033" lon="55.4968">
        <ele>395.71984863281</ele>
        <time>2013-01-14T04:07:29Z</time>
      </trkpt>
      <trkpt lat="-21.2303" lon="55.49687">
        <ele>393.31652832031</ele>
        <time>2013-01-14T04:07:42Z</time>
      </trkpt>
      <trkpt lat="-21.23028" lon="55.49683">
        <ele>391.87451171875</ele>
        <time>2013-01-14T04:07:45Z</time>
      </trkpt>
      <trkpt lat="-21.23032" lon="55.49674">
        <ele>388.99060058594</ele>
        <time>2013-01-14T04:07:55Z</time>
      </trkpt>
      <trkpt lat="-21.23032" lon="55.4967">
        <ele>388.029296875</ele>
        <time>2013-01-14T04:07:59Z</time>
      </trkpt>
      <trkpt lat="-21.23036" lon="55.49662">
        <ele>385.14538574219</ele>
        <time>2013-01-14T04:08:10Z</time>
      </trkpt>
      <trkpt lat="-21.23033" lon="55.49659">
        <ele>381.78063964844</ele>
        <time>2013-01-14T04:08:18Z</time>
      </trkpt>
      <trkpt lat="-21.23028" lon="55.49657">
        <ele>379.85803222656</ele>
        <time>2013-01-14T04:08:27Z</time>
      </trkpt>
      <trkpt lat="-21.23023" lon="55.49657">
        <ele>379.37744140625</ele>
        <time>2013-01-14T04:08:31Z</time>
      </trkpt>
      <trkpt lat="-21.23018" lon="55.49661">
        <ele>378.41613769531</ele>
        <time>2013-01-14T04:08:33Z</time>
      </trkpt>
      <trkpt lat="-21.2301" lon="55.4967">
        <ele>376.97424316406</ele>
        <time>2013-01-14T04:08:43Z</time>
      </trkpt>
      <trkpt lat="-21.23006" lon="55.49686">
        <ele>373.60949707031</ele>
        <time>2013-01-14T04:08:54Z</time>
      </trkpt>
      <trkpt lat="-21.23003" lon="55.49687">
        <ele>371.68688964844</ele>
        <time>2013-01-14T04:09:00Z</time>
      </trkpt>
      <trkpt lat="-21.22997" lon="55.49692">
        <ele>367.36096191406</ele>
        <time>2013-01-14T04:09:11Z</time>
      </trkpt>
      <trkpt lat="-21.22986" lon="55.497">
        <ele>367.36096191406</ele>
        <time>2013-01-14T04:09:32Z</time>
      </trkpt>
      <trkpt lat="-21.22985" lon="55.49703">
        <ele>365.9189453125</ele>
        <time>2013-01-14T04:09:44Z</time>
      </trkpt>
      <trkpt lat="-21.22987" lon="55.49708">
        <ele>366.88024902344</ele>
        <time>2013-01-14T04:09:55Z</time>
      </trkpt>
      <trkpt lat="-21.22984" lon="55.4971">
        <ele>365.43835449219</ele>
        <time>2013-01-14T04:10:07Z</time>
      </trkpt>
      <trkpt lat="-21.22978" lon="55.4971">
        <ele>366.88024902344</ele>
        <time>2013-01-14T04:10:33Z</time>
      </trkpt>
      <trkpt lat="-21.22977" lon="55.49714">
        <ele>366.39953613281</ele>
        <time>2013-01-14T04:10:47Z</time>
      </trkpt>
      <trkpt lat="-21.22967" lon="55.49726">
        <ele>367.36096191406</ele>
        <time>2013-01-14T04:11:04Z</time>
      </trkpt>
      <trkpt lat="-21.22964" lon="55.49731">
        <ele>369.28369140625</ele>
        <time>2013-01-14T04:11:11Z</time>
      </trkpt>
      <trkpt lat="-21.2296" lon="55.49733">
        <ele>370.7255859375</ele>
        <time>2013-01-14T04:11:17Z</time>
      </trkpt>
      <trkpt lat="-21.22958" lon="55.49739">
        <ele>370.7255859375</ele>
        <time>2013-01-14T04:11:24Z</time>
      </trkpt>
      <trkpt lat="-21.22953" lon="55.49745">
        <ele>371.68688964844</ele>
        <time>2013-01-14T04:11:33Z</time>
      </trkpt>
      <trkpt lat="-21.22947" lon="55.49746">
        <ele>372.16748046875</ele>
        <time>2013-01-14T04:11:36Z</time>
      </trkpt>
      <trkpt lat="-21.22938" lon="55.49756">
        <ele>372.16748046875</ele>
        <time>2013-01-14T04:11:45Z</time>
      </trkpt>
      <trkpt lat="-21.22991" lon="55.49748">
        <ele>372.16748046875</ele>
        <time>2013-01-14T04:11:46Z</time>
      </trkpt>
      <trkpt lat="-21.23009" lon="55.49796">
        <ele>372.64819335938</ele>
        <time>2013-01-14T04:11:57Z</time>
      </trkpt>
      <trkpt lat="-21.2301" lon="55.49797">
        <ele>372.64819335938</ele>
        <time>2013-01-14T04:11:58Z</time>
      </trkpt>
      <trkpt lat="-21.23004" lon="55.498">
        <ele>372.64819335938</ele>
        <time>2013-01-14T04:12:01Z</time>
      </trkpt>
      <trkpt lat="-21.22991" lon="55.49817">
        <ele>373.60949707031</ele>
        <time>2013-01-14T04:12:15Z</time>
      </trkpt>
      <trkpt lat="-21.22984" lon="55.49825">
        <ele>373.12890625</ele>
        <time>2013-01-14T04:12:21Z</time>
      </trkpt>
      <trkpt lat="-21.22974" lon="55.49828">
        <ele>374.57080078125</ele>
        <time>2013-01-14T04:12:38Z</time>
      </trkpt>
      <trkpt lat="-21.22951" lon="55.49818">
        <ele>374.57080078125</ele>
        <time>2013-01-14T04:13:02Z</time>
      </trkpt>
      <trkpt lat="-21.2294" lon="55.49821">
        <ele>375.53210449219</ele>
        <time>2013-01-14T04:13:12Z</time>
      </trkpt>
      <trkpt lat="-21.22934" lon="55.49829">
        <ele>375.53210449219</ele>
        <time>2013-01-14T04:13:24Z</time>
      </trkpt>
      <trkpt lat="-21.22921" lon="55.49834">
        <ele>376.01281738281</ele>
        <time>2013-01-14T04:13:31Z</time>
      </trkpt>
      <trkpt lat="-21.22887" lon="55.49837">
        <ele>378.41613769531</ele>
        <time>2013-01-14T04:13:47Z</time>
      </trkpt>
      <trkpt lat="-21.22877" lon="55.49835">
        <ele>378.89685058594</ele>
        <time>2013-01-14T04:13:52Z</time>
      </trkpt>
      <trkpt lat="-21.2286" lon="55.49834">
        <ele>380.33874511719</ele>
        <time>2013-01-14T04:14:06Z</time>
      </trkpt>
      <trkpt lat="-21.22859" lon="55.49833">
        <ele>380.33874511719</ele>
        <time>2013-01-14T04:14:07Z</time>
      </trkpt>
      <trkpt lat="-21.22839" lon="55.49852">
        <ele>381.78063964844</ele>
        <time>2013-01-14T04:14:24Z</time>
      </trkpt>
      <trkpt lat="-21.22837" lon="55.49864">
        <ele>382.74206542969</ele>
        <time>2013-01-14T04:14:36Z</time>
      </trkpt>
      <trkpt lat="-21.22831" lon="55.49866">
        <ele>382.26135253906</ele>
        <time>2013-01-14T04:14:40Z</time>
      </trkpt>
      <trkpt lat="-21.22811" lon="55.49873">
        <ele>382.26135253906</ele>
        <time>2013-01-14T04:14:53Z</time>
      </trkpt>
      <trkpt lat="-21.22796" lon="55.49873">
        <ele>382.26135253906</ele>
        <time>2013-01-14T04:15:01Z</time>
      </trkpt>
      <trkpt lat="-21.22793" lon="55.49869">
        <ele>381.78063964844</ele>
        <time>2013-01-14T04:15:03Z</time>
      </trkpt>
      <trkpt lat="-21.22788" lon="55.4987">
        <ele>381.30004882812</ele>
        <time>2013-01-14T04:15:06Z</time>
      </trkpt>
      <trkpt lat="-21.22779" lon="55.49869">
        <ele>381.30004882812</ele>
        <time>2013-01-14T04:15:10Z</time>
      </trkpt>
      <trkpt lat="-21.2277" lon="55.49877">
        <ele>380.33874511719</ele>
        <time>2013-01-14T04:15:21Z</time>
      </trkpt>
      <trkpt lat="-21.22767" lon="55.49875">
        <ele>379.85803222656</ele>
        <time>2013-01-14T04:15:24Z</time>
      </trkpt>
      <trkpt lat="-21.22769" lon="55.49887">
        <ele>379.85803222656</ele>
        <time>2013-01-14T04:15:38Z</time>
      </trkpt>
      <trkpt lat="-21.22762" lon="55.49897">
        <ele>380.33874511719</ele>
        <time>2013-01-14T04:15:49Z</time>
      </trkpt>
      <trkpt lat="-21.22763" lon="55.49898">
        <ele>380.33874511719</ele>
        <time>2013-01-14T04:15:50Z</time>
      </trkpt>
      <trkpt lat="-21.22771" lon="55.49905">
        <ele>380.33874511719</ele>
        <time>2013-01-14T04:16:04Z</time>
      </trkpt>
      <trkpt lat="-21.22775" lon="55.49904">
        <ele>380.33874511719</ele>
        <time>2013-01-14T04:16:10Z</time>
      </trkpt>
      <trkpt lat="-21.2278" lon="55.49899">
        <ele>380.33874511719</ele>
        <time>2013-01-14T04:16:29Z</time>
      </trkpt>
      <trkpt lat="-21.22776" lon="55.49901">
        <ele>381.30004882812</ele>
        <time>2013-01-14T04:16:42Z</time>
      </trkpt>
      <trkpt lat="-21.22776" lon="55.49903">
        <ele>382.74206542969</ele>
        <time>2013-01-14T04:16:57Z</time>
      </trkpt>
      <trkpt lat="-21.22778" lon="55.49908">
        <ele>384.18408203125</ele>
        <time>2013-01-14T04:17:03Z</time>
      </trkpt>
      <trkpt lat="-21.22775" lon="55.49906">
        <ele>384.66479492188</ele>
        <time>2013-01-14T04:17:06Z</time>
      </trkpt>
      <trkpt lat="-21.22762" lon="55.4992">
        <ele>386.58740234375</ele>
        <time>2013-01-14T04:17:19Z</time>
      </trkpt>
      <trkpt lat="-21.22757" lon="55.49924">
        <ele>386.58740234375</ele>
        <time>2013-01-14T04:17:24Z</time>
      </trkpt>
      <trkpt lat="-21.22755" lon="55.49931">
        <ele>387.54858398438</ele>
        <time>2013-01-14T04:17:30Z</time>
      </trkpt>
      <trkpt lat="-21.2275" lon="55.49948">
        <ele>389.47119140625</ele>
        <time>2013-01-14T04:17:46Z</time>
      </trkpt>
      <trkpt lat="-21.22743" lon="55.49961">
        <ele>389.95190429688</ele>
        <time>2013-01-14T04:17:54Z</time>
      </trkpt>
      <trkpt lat="-21.22739" lon="55.49966">
        <ele>389.95190429688</ele>
        <time>2013-01-14T04:17:59Z</time>
      </trkpt>
      <trkpt lat="-21.22733" lon="55.49968">
        <ele>390.4326171875</ele>
        <time>2013-01-14T04:18:04Z</time>
      </trkpt>
      <trkpt lat="-21.22712" lon="55.49971">
        <ele>391.39379882812</ele>
        <time>2013-01-14T04:18:19Z</time>
      </trkpt>
      <trkpt lat="-21.22709" lon="55.49984">
        <ele>391.39379882812</ele>
        <time>2013-01-14T04:18:28Z</time>
      </trkpt>
      <trkpt lat="-21.22703" lon="55.50009">
        <ele>392.35534667969</ele>
        <time>2013-01-14T04:18:43Z</time>
      </trkpt>
      <trkpt lat="-21.22706" lon="55.50014">
        <ele>393.31652832031</ele>
        <time>2013-01-14T04:18:45Z</time>
      </trkpt>
      <trkpt lat="-21.22696" lon="55.50011">
        <ele>393.79724121094</ele>
        <time>2013-01-14T04:18:54Z</time>
      </trkpt>
      <trkpt lat="-21.22684" lon="55.50031">
        <ele>395.23913574219</ele>
        <time>2013-01-14T04:19:05Z</time>
      </trkpt>
      <trkpt lat="-21.2269" lon="55.50026">
        <ele>394.75854492188</ele>
        <time>2013-01-14T04:19:07Z</time>
      </trkpt>
      <trkpt lat="-21.22685" lon="55.50026">
        <ele>395.23913574219</ele>
        <time>2013-01-14T04:19:10Z</time>
      </trkpt>
      <trkpt lat="-21.22677" lon="55.50044">
        <ele>396.20056152344</ele>
        <time>2013-01-14T04:19:21Z</time>
      </trkpt>
      <trkpt lat="-21.22683" lon="55.50066">
        <ele>396.68115234375</ele>
        <time>2013-01-14T04:19:29Z</time>
      </trkpt>
      <trkpt lat="-21.22671" lon="55.50084">
        <ele>397.64245605469</ele>
        <time>2013-01-14T04:19:34Z</time>
      </trkpt>
      <trkpt lat="-21.22675" lon="55.50095">
        <ele>397.64245605469</ele>
        <time>2013-01-14T04:19:39Z</time>
      </trkpt>
      <trkpt lat="-21.22665" lon="55.501">
        <ele>398.60375976562</ele>
        <time>2013-01-14T04:19:49Z</time>
      </trkpt>
      <trkpt lat="-21.22657" lon="55.50094">
        <ele>399.08435058594</ele>
        <time>2013-01-14T04:19:52Z</time>
      </trkpt>
      <trkpt lat="-21.2265" lon="55.50107">
        <ele>399.08435058594</ele>
        <time>2013-01-14T04:20:00Z</time>
      </trkpt>
      <trkpt lat="-21.22649" lon="55.50108">
        <ele>400.52648925781</ele>
        <time>2013-01-14T04:20:06Z</time>
      </trkpt>
      <trkpt lat="-21.22641" lon="55.50115">
        <ele>400.52648925781</ele>
        <time>2013-01-14T04:20:12Z</time>
      </trkpt>
      <trkpt lat="-21.22634" lon="55.50119">
        <ele>400.52648925781</ele>
        <time>2013-01-14T04:20:16Z</time>
      </trkpt>
      <trkpt lat="-21.22631" lon="55.50125">
        <ele>401.96850585938</ele>
        <time>2013-01-14T04:20:23Z</time>
      </trkpt>
      <trkpt lat="-21.2263" lon="55.50139">
        <ele>402.44909667969</ele>
        <time>2013-01-14T04:20:33Z</time>
      </trkpt>
      <trkpt lat="-21.22629" lon="55.50158">
        <ele>402.44909667969</ele>
        <time>2013-01-14T04:20:42Z</time>
      </trkpt>
      <trkpt lat="-21.22627" lon="55.5016">
        <ele>402.9296875</ele>
        <time>2013-01-14T04:20:44Z</time>
      </trkpt>
      <trkpt lat="-21.22613" lon="55.50172">
        <ele>402.9296875</ele>
        <time>2013-01-14T04:20:54Z</time>
      </trkpt>
      <trkpt lat="-21.2261" lon="55.50189">
        <ele>402.44909667969</ele>
        <time>2013-01-14T04:21:08Z</time>
      </trkpt>
      <trkpt lat="-21.22612" lon="55.50191">
        <ele>402.9296875</ele>
        <time>2013-01-14T04:21:13Z</time>
      </trkpt>
      <trkpt lat="-21.22608" lon="55.50223">
        <ele>402.9296875</ele>
        <time>2013-01-14T04:21:28Z</time>
      </trkpt>
      <trkpt lat="-21.22598" lon="55.50231">
        <ele>402.9296875</ele>
        <time>2013-01-14T04:21:41Z</time>
      </trkpt>
      <trkpt lat="-21.22598" lon="55.50234">
        <ele>402.9296875</ele>
        <time>2013-01-14T04:21:44Z</time>
      </trkpt>
      <trkpt lat="-21.22597" lon="55.50244">
        <ele>402.9296875</ele>
        <time>2013-01-14T04:21:53Z</time>
      </trkpt>
      <trkpt lat="-21.22595" lon="55.5025">
        <ele>402.9296875</ele>
        <time>2013-01-14T04:21:58Z</time>
      </trkpt>
      <trkpt lat="-21.22592" lon="55.50261">
        <ele>402.9296875</ele>
        <time>2013-01-14T04:22:08Z</time>
      </trkpt>
      <trkpt lat="-21.22585" lon="55.50269">
        <ele>402.9296875</ele>
        <time>2013-01-14T04:22:19Z</time>
      </trkpt>
      <trkpt lat="-21.22577" lon="55.50273">
        <ele>402.9296875</ele>
        <time>2013-01-14T04:22:35Z</time>
      </trkpt>
      <trkpt lat="-21.22571" lon="55.50272">
        <ele>402.9296875</ele>
        <time>2013-01-14T04:22:40Z</time>
      </trkpt>
      <trkpt lat="-21.22556" lon="55.50289">
        <ele>402.9296875</ele>
        <time>2013-01-14T04:22:54Z</time>
      </trkpt>
      <trkpt lat="-21.22553" lon="55.50293">
        <ele>402.9296875</ele>
        <time>2013-01-14T04:22:59Z</time>
      </trkpt>
      <trkpt lat="-21.22544" lon="55.50295">
        <ele>401.96850585938</ele>
        <time>2013-01-14T04:23:06Z</time>
      </trkpt>
      <trkpt lat="-21.22541" lon="55.50301">
        <ele>403.41040039062</ele>
        <time>2013-01-14T04:23:18Z</time>
      </trkpt>
      <trkpt lat="-21.22534" lon="55.50308">
        <ele>403.41040039062</ele>
        <time>2013-01-14T04:23:23Z</time>
      </trkpt>
      <trkpt lat="-21.2252" lon="55.50312">
        <ele>403.41040039062</ele>
        <time>2013-01-14T04:23:37Z</time>
      </trkpt>
      <trkpt lat="-21.22501" lon="55.50324">
        <ele>404.37170410156</ele>
        <time>2013-01-14T04:23:57Z</time>
      </trkpt>
      <trkpt lat="-21.22496" lon="55.50329">
        <ele>405.3330078125</ele>
        <time>2013-01-14T04:24:02Z</time>
      </trkpt>
      <trkpt lat="-21.22471" lon="55.50342">
        <ele>403.41040039062</ele>
        <time>2013-01-14T04:24:19Z</time>
      </trkpt>
      <trkpt lat="-21.22468" lon="55.50345">
        <ele>403.89111328125</ele>
        <time>2013-01-14T04:24:22Z</time>
      </trkpt>
      <trkpt lat="-21.22456" lon="55.50347">
        <ele>404.37170410156</ele>
        <time>2013-01-14T04:24:33Z</time>
      </trkpt>
      <trkpt lat="-21.22459" lon="55.50352">
        <ele>407.25561523438</ele>
        <time>2013-01-14T04:24:42Z</time>
      </trkpt>
      <trkpt lat="-21.22466" lon="55.50353">
        <ele>408.69763183594</ele>
        <time>2013-01-14T04:24:46Z</time>
      </trkpt>
      <trkpt lat="-21.22472" lon="55.50352">
        <ele>410.62023925781</ele>
        <time>2013-01-14T04:24:52Z</time>
      </trkpt>
      <trkpt lat="-21.22474" lon="55.50353">
        <ele>411.10095214844</ele>
        <time>2013-01-14T04:24:55Z</time>
      </trkpt>
      <trkpt lat="-21.22473" lon="55.50357">
        <ele>411.10095214844</ele>
        <time>2013-01-14T04:24:59Z</time>
      </trkpt>
      <trkpt lat="-21.22471" lon="55.5036">
        <ele>411.58166503906</ele>
        <time>2013-01-14T04:25:02Z</time>
      </trkpt>
      <trkpt lat="-21.22462" lon="55.50363">
        <ele>412.06225585938</ele>
        <time>2013-01-14T04:25:09Z</time>
      </trkpt>
      <trkpt lat="-21.22458" lon="55.50363">
        <ele>412.06225585938</ele>
        <time>2013-01-14T04:25:11Z</time>
      </trkpt>
      <trkpt lat="-21.22443" lon="55.50362">
        <ele>413.50427246094</ele>
        <time>2013-01-14T04:25:25Z</time>
      </trkpt>
      <trkpt lat="-21.22438" lon="55.50364">
        <ele>413.98486328125</ele>
        <time>2013-01-14T04:25:29Z</time>
      </trkpt>
      <trkpt lat="-21.22427" lon="55.50369">
        <ele>414.94616699219</ele>
        <time>2013-01-14T04:25:40Z</time>
      </trkpt>
      <trkpt lat="-21.22407" lon="55.50373">
        <ele>414.46545410156</ele>
        <time>2013-01-14T04:25:57Z</time>
      </trkpt>
      <trkpt lat="-21.22402" lon="55.50375">
        <ele>414.94616699219</ele>
        <time>2013-01-14T04:26:03Z</time>
      </trkpt>
      <trkpt lat="-21.22379" lon="55.50376">
        <ele>414.94616699219</ele>
        <time>2013-01-14T04:26:18Z</time>
      </trkpt>
      <trkpt lat="-21.22374" lon="55.50377">
        <ele>414.94616699219</ele>
        <time>2013-01-14T04:26:22Z</time>
      </trkpt>
      <trkpt lat="-21.22367" lon="55.50378">
        <ele>414.46545410156</ele>
        <time>2013-01-14T04:26:26Z</time>
      </trkpt>
      <trkpt lat="-21.22357" lon="55.50391">
        <ele>415.42687988281</ele>
        <time>2013-01-14T04:26:38Z</time>
      </trkpt>
      <trkpt lat="-21.22354" lon="55.50393">
        <ele>414.94616699219</ele>
        <time>2013-01-14T04:26:41Z</time>
      </trkpt>
      <trkpt lat="-21.22349" lon="55.50392">
        <ele>414.94616699219</ele>
        <time>2013-01-14T04:26:45Z</time>
      </trkpt>
      <trkpt lat="-21.22337" lon="55.50411">
        <ele>415.42687988281</ele>
        <time>2013-01-14T04:27:00Z</time>
      </trkpt>
      <trkpt lat="-21.22332" lon="55.50416">
        <ele>415.42687988281</ele>
        <time>2013-01-14T04:27:03Z</time>
      </trkpt>
      <trkpt lat="-21.22328" lon="55.50415">
        <ele>416.38818359375</ele>
        <time>2013-01-14T04:27:07Z</time>
      </trkpt>
      <trkpt lat="-21.22315" lon="55.50426">
        <ele>416.38818359375</ele>
        <time>2013-01-14T04:27:17Z</time>
      </trkpt>
      <trkpt lat="-21.22306" lon="55.50427">
        <ele>416.86889648438</ele>
        <time>2013-01-14T04:27:22Z</time>
      </trkpt>
      <trkpt lat="-21.2229" lon="55.50441">
        <ele>417.349609375</ele>
        <time>2013-01-14T04:27:35Z</time>
      </trkpt>
      <trkpt lat="-21.22284" lon="55.50445">
        <ele>416.86889648438</ele>
        <time>2013-01-14T04:27:41Z</time>
      </trkpt>
      <trkpt lat="-21.22283" lon="55.50448">
        <ele>417.349609375</ele>
        <time>2013-01-14T04:27:44Z</time>
      </trkpt>
      <trkpt lat="-21.22281" lon="55.50453">
        <ele>416.38818359375</ele>
        <time>2013-01-14T04:27:47Z</time>
      </trkpt>
      <trkpt lat="-21.22267" lon="55.50468">
        <ele>417.349609375</ele>
        <time>2013-01-14T04:27:59Z</time>
      </trkpt>
      <trkpt lat="-21.22258" lon="55.5048">
        <ele>418.31079101562</ele>
        <time>2013-01-14T04:28:10Z</time>
      </trkpt>
      <trkpt lat="-21.22255" lon="55.50487">
        <ele>418.79150390625</ele>
        <time>2013-01-14T04:28:14Z</time>
      </trkpt>
      <trkpt lat="-21.22242" lon="55.50479">
        <ele>418.31079101562</ele>
        <time>2013-01-14T04:28:16Z</time>
      </trkpt>
      <trkpt lat="-21.22231" lon="55.50478">
        <ele>418.79150390625</ele>
        <time>2013-01-14T04:28:21Z</time>
      </trkpt>
      <trkpt lat="-21.22219" lon="55.50476">
        <ele>420.2333984375</ele>
        <time>2013-01-14T04:28:30Z</time>
      </trkpt>
      <trkpt lat="-21.22213" lon="55.5048">
        <ele>421.19482421875</ele>
        <time>2013-01-14T04:28:37Z</time>
      </trkpt>
      <trkpt lat="-21.22199" lon="55.50479">
        <ele>422.63671875</ele>
        <time>2013-01-14T04:28:44Z</time>
      </trkpt>
      <trkpt lat="-21.22188" lon="55.50479">
        <ele>423.11743164062</ele>
        <time>2013-01-14T04:28:56Z</time>
      </trkpt>
      <trkpt lat="-21.22161" lon="55.50454">
        <ele>425.04016113281</ele>
        <time>2013-01-14T04:29:22Z</time>
      </trkpt>
      <trkpt lat="-21.22139" lon="55.50444">
        <ele>425.52075195312</ele>
        <time>2013-01-14T04:29:36Z</time>
      </trkpt>
      <trkpt lat="-21.22133" lon="55.50443">
        <ele>426.00134277344</ele>
        <time>2013-01-14T04:29:39Z</time>
      </trkpt>
      <trkpt lat="-21.22156" lon="55.50408">
        <ele>424.55944824219</ele>
        <time>2013-01-14T04:30:00Z</time>
      </trkpt>
      <trkpt lat="-21.22154" lon="55.50408">
        <ele>428.88537597656</ele>
        <time>2013-01-14T04:30:02Z</time>
      </trkpt>
      <trkpt lat="-21.22154" lon="55.50408">
        <ele>428.88537597656</ele>
        <time>2013-01-14T04:30:03Z</time>
      </trkpt>
      <trkpt lat="-21.22155" lon="55.50406">
        <ele>426.48205566406</ele>
        <time>2013-01-14T04:30:05Z</time>
      </trkpt>
      <trkpt lat="-21.22153" lon="55.50407">
        <ele>426.00134277344</ele>
        <time>2013-01-14T04:30:10Z</time>
      </trkpt>
      <trkpt lat="-21.22145" lon="55.50393">
        <ele>426.00134277344</ele>
        <time>2013-01-14T04:30:19Z</time>
      </trkpt>
      <trkpt lat="-21.22138" lon="55.50386">
        <ele>425.52075195312</ele>
        <time>2013-01-14T04:30:28Z</time>
      </trkpt>
      <trkpt lat="-21.2213" lon="55.50385">
        <ele>424.55944824219</ele>
        <time>2013-01-14T04:30:33Z</time>
      </trkpt>
      <trkpt lat="-21.22123" lon="55.50375">
        <ele>425.04016113281</ele>
        <time>2013-01-14T04:30:41Z</time>
      </trkpt>
      <trkpt lat="-21.22117" lon="55.50356">
        <ele>426.00134277344</ele>
        <time>2013-01-14T04:30:55Z</time>
      </trkpt>
      <trkpt lat="-21.22116" lon="55.50354">
        <ele>426.00134277344</ele>
        <time>2013-01-14T04:30:56Z</time>
      </trkpt>
      <trkpt lat="-21.22112" lon="55.50352">
        <ele>426.48205566406</ele>
        <time>2013-01-14T04:31:00Z</time>
      </trkpt>
      <trkpt lat="-21.22104" lon="55.5035">
        <ele>426.48205566406</ele>
        <time>2013-01-14T04:31:08Z</time>
      </trkpt>
      <trkpt lat="-21.22087" lon="55.5034">
        <ele>427.443359375</ele>
        <time>2013-01-14T04:31:21Z</time>
      </trkpt>
      <trkpt lat="-21.22077" lon="55.50323">
        <ele>428.88537597656</ele>
        <time>2013-01-14T04:31:35Z</time>
      </trkpt>
      <trkpt lat="-21.22068" lon="55.50323">
        <ele>429.36596679688</ele>
        <time>2013-01-14T04:31:44Z</time>
      </trkpt>
      <trkpt lat="-21.22062" lon="55.50318">
        <ele>429.84655761719</ele>
        <time>2013-01-14T04:31:55Z</time>
      </trkpt>
      <trkpt lat="-21.2207" lon="55.50308">
        <ele>429.84655761719</ele>
        <time>2013-01-14T04:31:56Z</time>
      </trkpt>
      <trkpt lat="-21.22105" lon="55.50209">
        <ele>428.40466308594</ele>
        <time>2013-01-14T04:32:08Z</time>
      </trkpt>
      <trkpt lat="-21.22097" lon="55.50228">
        <ele>428.88537597656</ele>
        <time>2013-01-14T04:32:18Z</time>
      </trkpt>
      <trkpt lat="-21.22087" lon="55.50229">
        <ele>430.80798339844</ele>
        <time>2013-01-14T04:32:29Z</time>
      </trkpt>
      <trkpt lat="-21.22094" lon="55.50231">
        <ele>431.76916503906</ele>
        <time>2013-01-14T04:32:37Z</time>
      </trkpt>
      <trkpt lat="-21.22086" lon="55.50248">
        <ele>431.76916503906</ele>
        <time>2013-01-14T04:32:46Z</time>
      </trkpt>
      <trkpt lat="-21.22071" lon="55.50275">
        <ele>431.28857421875</ele>
        <time>2013-01-14T04:32:56Z</time>
      </trkpt>
      <trkpt lat="-21.22046" lon="55.50306">
        <ele>430.32727050781</ele>
        <time>2013-01-14T04:33:06Z</time>
      </trkpt>
      <trkpt lat="-21.22036" lon="55.50327">
        <ele>429.84655761719</ele>
        <time>2013-01-14T04:33:12Z</time>
      </trkpt>
      <trkpt lat="-21.22035" lon="55.50332">
        <ele>430.32727050781</ele>
        <time>2013-01-14T04:33:25Z</time>
      </trkpt>
      <trkpt lat="-21.22019" lon="55.50351">
        <ele>431.76916503906</ele>
        <time>2013-01-14T04:33:34Z</time>
      </trkpt>
      <trkpt lat="-21.22013" lon="55.50357">
        <ele>431.76916503906</ele>
        <time>2013-01-14T04:33:36Z</time>
      </trkpt>
      <trkpt lat="-21.21997" lon="55.50375">
        <ele>432.25</ele>
        <time>2013-01-14T04:33:40Z</time>
      </trkpt>
      <trkpt lat="-21.21998" lon="55.50369">
        <ele>432.73071289062</ele>
        <time>2013-01-14T04:33:44Z</time>
      </trkpt>
      <trkpt lat="-21.21981" lon="55.50392">
        <ele>433.21130371094</ele>
        <time>2013-01-14T04:33:56Z</time>
      </trkpt>
      <trkpt lat="-21.21981" lon="55.50392">
        <ele>433.21130371094</ele>
        <time>2013-01-14T04:33:58Z</time>
      </trkpt>
      <trkpt lat="-21.21961" lon="55.50409">
        <ele>433.69189453125</ele>
        <time>2013-01-14T04:34:05Z</time>
      </trkpt>
      <trkpt lat="-21.2195" lon="55.50438">
        <ele>434.17260742188</ele>
        <time>2013-01-14T04:34:14Z</time>
      </trkpt>
      <trkpt lat="-21.21949" lon="55.50435">
        <ele>434.17260742188</ele>
        <time>2013-01-14T04:34:21Z</time>
      </trkpt>
      <trkpt lat="-21.21943" lon="55.50432">
        <ele>433.69189453125</ele>
        <time>2013-01-14T04:34:26Z</time>
      </trkpt>
      <trkpt lat="-21.2194" lon="55.5043">
        <ele>433.69189453125</ele>
        <time>2013-01-14T04:34:33Z</time>
      </trkpt>
      <trkpt lat="-21.21921" lon="55.50436">
        <ele>433.21130371094</ele>
        <time>2013-01-14T04:34:43Z</time>
      </trkpt>
      <trkpt lat="-21.21914" lon="55.50439">
        <ele>433.69189453125</ele>
        <time>2013-01-14T04:34:46Z</time>
      </trkpt>
      <trkpt lat="-21.21908" lon="55.50441">
        <ele>433.69189453125</ele>
        <time>2013-01-14T04:34:52Z</time>
      </trkpt>
      <trkpt lat="-21.21898" lon="55.50448">
        <ele>433.69189453125</ele>
        <time>2013-01-14T04:34:58Z</time>
      </trkpt>
      <trkpt lat="-21.21896" lon="55.5045">
        <ele>434.17260742188</ele>
        <time>2013-01-14T04:35:02Z</time>
      </trkpt>
      <trkpt lat="-21.21884" lon="55.50469">
        <ele>435.13391113281</ele>
        <time>2013-01-14T04:35:16Z</time>
      </trkpt>
      <trkpt lat="-21.21874" lon="55.50475">
        <ele>433.69189453125</ele>
        <time>2013-01-14T04:35:24Z</time>
      </trkpt>
      <trkpt lat="-21.21861" lon="55.50498">
        <ele>434.6533203125</ele>
        <time>2013-01-14T04:35:40Z</time>
      </trkpt>
      <trkpt lat="-21.21859" lon="55.505">
        <ele>434.6533203125</ele>
        <time>2013-01-14T04:35:58Z</time>
      </trkpt>
      <trkpt lat="-21.21849" lon="55.50508">
        <ele>434.6533203125</ele>
        <time>2013-01-14T04:36:25Z</time>
      </trkpt>
      <trkpt lat="-21.21838" lon="55.50514">
        <ele>436.57592773438</ele>
        <time>2013-01-14T04:36:34Z</time>
      </trkpt>
      <trkpt lat="-21.21813" lon="55.50536">
        <ele>436.57592773438</ele>
        <time>2013-01-14T04:36:46Z</time>
      </trkpt>
      <trkpt lat="-21.21812" lon="55.50536">
        <ele>436.09521484375</ele>
        <time>2013-01-14T04:36:49Z</time>
      </trkpt>
      <trkpt lat="-21.21811" lon="55.50535">
        <ele>434.6533203125</ele>
        <time>2013-01-14T04:37:02Z</time>
      </trkpt>
      <trkpt lat="-21.21811" lon="55.50534">
        <ele>434.6533203125</ele>
        <time>2013-01-14T04:37:03Z</time>
      </trkpt>
      <trkpt lat="-21.21817" lon="55.5053">
        <ele>434.17260742188</ele>
        <time>2013-01-14T04:37:09Z</time>
      </trkpt>
      <trkpt lat="-21.21818" lon="55.50528">
        <ele>434.17260742188</ele>
        <time>2013-01-14T04:37:11Z</time>
      </trkpt>
      <trkpt lat="-21.2182" lon="55.50526">
        <ele>434.6533203125</ele>
        <time>2013-01-14T04:37:16Z</time>
      </trkpt>
      <trkpt lat="-21.21817" lon="55.50531">
        <ele>435.13391113281</ele>
        <time>2013-01-14T04:37:18Z</time>
      </trkpt>
      <trkpt lat="-21.21808" lon="55.50537">
        <ele>437.537109375</ele>
        <time>2013-01-14T04:37:25Z</time>
      </trkpt>
      <trkpt lat="-21.21806" lon="55.50541">
        <ele>440.42126464844</ele>
        <time>2013-01-14T04:37:33Z</time>
      </trkpt>
      <trkpt lat="-21.21804" lon="55.50543">
        <ele>440.90185546875</ele>
        <time>2013-01-14T04:37:37Z</time>
      </trkpt>
      <trkpt lat="-21.21791" lon="55.50554">
        <ele>442.34387207031</ele>
        <time>2013-01-14T04:37:55Z</time>
      </trkpt>
      <trkpt lat="-21.21786" lon="55.50564">
        <ele>445.70837402344</ele>
        <time>2013-01-14T04:38:06Z</time>
      </trkpt>
      <trkpt lat="-21.21788" lon="55.50571">
        <ele>446.66967773438</ele>
        <time>2013-01-14T04:38:11Z</time>
      </trkpt>
      <trkpt lat="-21.21776" lon="55.50589">
        <ele>447.63098144531</ele>
        <time>2013-01-14T04:38:30Z</time>
      </trkpt>
      <trkpt lat="-21.21775" lon="55.50592">
        <ele>447.63098144531</ele>
        <time>2013-01-14T04:38:33Z</time>
      </trkpt>
      <trkpt lat="-21.21771" lon="55.50596">
        <ele>447.63098144531</ele>
        <time>2013-01-14T04:38:36Z</time>
      </trkpt>
      <trkpt lat="-21.21756" lon="55.50601">
        <ele>445.70837402344</ele>
        <time>2013-01-14T04:38:51Z</time>
      </trkpt>
      <trkpt lat="-21.2175" lon="55.50603">
        <ele>444.26647949219</ele>
        <time>2013-01-14T04:39:00Z</time>
      </trkpt>
      <trkpt lat="-21.21733" lon="55.50609">
        <ele>441.86315917969</ele>
        <time>2013-01-14T04:39:18Z</time>
      </trkpt>
      <trkpt lat="-21.21727" lon="55.50614">
        <ele>441.86315917969</ele>
        <time>2013-01-14T04:39:34Z</time>
      </trkpt>
      <trkpt lat="-21.21717" lon="55.50617">
        <ele>441.38244628906</ele>
        <time>2013-01-14T04:39:50Z</time>
      </trkpt>
      <trkpt lat="-21.21717" lon="55.50618">
        <ele>441.38244628906</ele>
        <time>2013-01-14T04:39:54Z</time>
      </trkpt>
      <trkpt lat="-21.21708" lon="55.50624">
        <ele>442.34387207031</ele>
        <time>2013-01-14T04:40:06Z</time>
      </trkpt>
      <trkpt lat="-21.21706" lon="55.50624">
        <ele>442.82446289062</ele>
        <time>2013-01-14T04:40:23Z</time>
      </trkpt>
      <trkpt lat="-21.21704" lon="55.50621">
        <ele>442.34387207031</ele>
        <time>2013-01-14T04:40:26Z</time>
      </trkpt>
      <trkpt lat="-21.21702" lon="55.50611">
        <ele>441.38244628906</ele>
        <time>2013-01-14T04:40:39Z</time>
      </trkpt>
      <trkpt lat="-21.21701" lon="55.50612">
        <ele>442.34387207031</ele>
        <time>2013-01-14T04:41:00Z</time>
      </trkpt>
      <trkpt lat="-21.21704" lon="55.50621">
        <ele>442.82446289062</ele>
        <time>2013-01-14T04:41:40Z</time>
      </trkpt>
      <trkpt lat="-21.21708" lon="55.5062">
        <ele>442.34387207031</ele>
        <time>2013-01-14T04:41:59Z</time>
      </trkpt>
      <trkpt lat="-21.21707" lon="55.50627">
        <ele>443.30505371094</ele>
        <time>2013-01-14T04:42:08Z</time>
      </trkpt>
      <trkpt lat="-21.21706" lon="55.50628">
        <ele>441.86315917969</ele>
        <time>2013-01-14T04:42:10Z</time>
      </trkpt>
      <trkpt lat="-21.21701" lon="55.50634">
        <ele>442.34387207031</ele>
        <time>2013-01-14T04:42:29Z</time>
      </trkpt>
      <trkpt lat="-21.217" lon="55.50638">
        <ele>442.34387207031</ele>
        <time>2013-01-14T04:42:34Z</time>
      </trkpt>
      <trkpt lat="-21.21682" lon="55.50653">
        <ele>440.90185546875</ele>
        <time>2013-01-14T04:43:00Z</time>
      </trkpt>
      <trkpt lat="-21.21672" lon="55.5066">
        <ele>439.9404296875</ele>
        <time>2013-01-14T04:43:19Z</time>
      </trkpt>
      <trkpt lat="-21.21655" lon="55.50665">
        <ele>439.45971679688</ele>
        <time>2013-01-14T04:43:36Z</time>
      </trkpt>
      <trkpt lat="-21.21651" lon="55.50665">
        <ele>440.90185546875</ele>
        <time>2013-01-14T04:43:56Z</time>
      </trkpt>
      <trkpt lat="-21.21641" lon="55.50657">
        <ele>438.97912597656</ele>
        <time>2013-01-14T04:44:16Z</time>
      </trkpt>
      <trkpt lat="-21.21639" lon="55.50653">
        <ele>438.97912597656</ele>
        <time>2013-01-14T04:44:38Z</time>
      </trkpt>
      <trkpt lat="-21.21638" lon="55.50652">
        <ele>439.45971679688</ele>
        <time>2013-01-14T04:45:01Z</time>
      </trkpt>
      <trkpt lat="-21.21639" lon="55.50651">
        <ele>439.9404296875</ele>
        <time>2013-01-14T04:45:02Z</time>
      </trkpt>
      <trkpt lat="-21.2164" lon="55.50635">
        <ele>439.9404296875</ele>
        <time>2013-01-14T04:45:31Z</time>
      </trkpt>
      <trkpt lat="-21.21637" lon="55.50621">
        <ele>438.97912597656</ele>
        <time>2013-01-14T04:45:45Z</time>
      </trkpt>
      <trkpt lat="-21.21639" lon="55.50619">
        <ele>439.9404296875</ele>
        <time>2013-01-14T04:45:47Z</time>
      </trkpt>
      <trkpt lat="-21.21638" lon="55.50616">
        <ele>439.45971679688</ele>
        <time>2013-01-14T04:45:49Z</time>
      </trkpt>
      <trkpt lat="-21.21646" lon="55.50607">
        <ele>438.01782226562</ele>
        <time>2013-01-14T04:46:07Z</time>
      </trkpt>
      <trkpt lat="-21.21652" lon="55.50608">
        <ele>439.9404296875</ele>
        <time>2013-01-14T04:46:22Z</time>
      </trkpt>
      <trkpt lat="-21.21652" lon="55.5061">
        <ele>439.9404296875</ele>
        <time>2013-01-14T04:46:23Z</time>
      </trkpt>
      <trkpt lat="-21.21653" lon="55.50613">
        <ele>441.38244628906</ele>
        <time>2013-01-14T04:46:30Z</time>
      </trkpt>
      <trkpt lat="-21.21659" lon="55.50611">
        <ele>441.38244628906</ele>
        <time>2013-01-14T04:46:34Z</time>
      </trkpt>
      <trkpt lat="-21.21675" lon="55.50601">
        <ele>441.86315917969</ele>
        <time>2013-01-14T04:46:43Z</time>
      </trkpt>
      <trkpt lat="-21.21677" lon="55.50582">
        <ele>441.86315917969</ele>
        <time>2013-01-14T04:46:53Z</time>
      </trkpt>
      <trkpt lat="-21.2168" lon="55.5057">
        <ele>442.34387207031</ele>
        <time>2013-01-14T04:47:04Z</time>
      </trkpt>
      <trkpt lat="-21.21683" lon="55.50566">
        <ele>442.82446289062</ele>
        <time>2013-01-14T04:47:10Z</time>
      </trkpt>
      <trkpt lat="-21.21686" lon="55.50556">
        <ele>444.7470703125</ele>
        <time>2013-01-14T04:47:24Z</time>
      </trkpt>
      <trkpt lat="-21.21705" lon="55.5054">
        <ele>445.70837402344</ele>
        <time>2013-01-14T04:47:46Z</time>
      </trkpt>
      <trkpt lat="-21.21701" lon="55.50526">
        <ele>445.70837402344</ele>
        <time>2013-01-14T04:47:57Z</time>
      </trkpt>
      <trkpt lat="-21.21704" lon="55.50522">
        <ele>445.70837402344</ele>
        <time>2013-01-14T04:48:01Z</time>
      </trkpt>
      <trkpt lat="-21.21704" lon="55.50515">
        <ele>446.18908691406</ele>
        <time>2013-01-14T04:48:14Z</time>
      </trkpt>
      <trkpt lat="-21.21708" lon="55.50516">
        <ele>445.70837402344</ele>
        <time>2013-01-14T04:48:41Z</time>
      </trkpt>
      <trkpt lat="-21.21711" lon="55.50514">
        <ele>445.70837402344</ele>
        <time>2013-01-14T04:48:43Z</time>
      </trkpt>
      <trkpt lat="-21.21716" lon="55.50514">
        <ele>445.70837402344</ele>
        <time>2013-01-14T04:48:50Z</time>
      </trkpt>
      <trkpt lat="-21.21731" lon="55.50521">
        <ele>445.70837402344</ele>
        <time>2013-01-14T04:49:03Z</time>
      </trkpt>
      <trkpt lat="-21.21735" lon="55.50517">
        <ele>446.66967773438</ele>
        <time>2013-01-14T04:49:21Z</time>
      </trkpt>
      <trkpt lat="-21.21745" lon="55.50513">
        <ele>448.59240722656</ele>
        <time>2013-01-14T04:49:32Z</time>
      </trkpt>
      <trkpt lat="-21.21749" lon="55.50511">
        <ele>449.5537109375</ele>
        <time>2013-01-14T04:49:37Z</time>
      </trkpt>
      <trkpt lat="-21.21756" lon="55.50512">
        <ele>449.5537109375</ele>
        <time>2013-01-14T04:49:42Z</time>
      </trkpt>
      <trkpt lat="-21.21772" lon="55.50497">
        <ele>450.03442382812</ele>
        <time>2013-01-14T04:50:01Z</time>
      </trkpt>
      <trkpt lat="-21.21781" lon="55.50478">
        <ele>449.07299804688</ele>
        <time>2013-01-14T04:50:12Z</time>
      </trkpt>
      <trkpt lat="-21.21787" lon="55.50481">
        <ele>447.63098144531</ele>
        <time>2013-01-14T04:50:21Z</time>
      </trkpt>
      <trkpt lat="-21.2179" lon="55.50481">
        <ele>447.15026855469</ele>
        <time>2013-01-14T04:50:23Z</time>
      </trkpt>
      <trkpt lat="-21.21793" lon="55.50481">
        <ele>446.66967773438</ele>
        <time>2013-01-14T04:50:26Z</time>
      </trkpt>
      <trkpt lat="-21.21798" lon="55.50485">
        <ele>445.22766113281</ele>
        <time>2013-01-14T04:50:32Z</time>
      </trkpt>
      <trkpt lat="-21.21805" lon="55.50486">
        <ele>444.7470703125</ele>
        <time>2013-01-14T04:50:38Z</time>
      </trkpt>
      <trkpt lat="-21.21798" lon="55.50492">
        <ele>444.7470703125</ele>
        <time>2013-01-14T04:50:49Z</time>
      </trkpt>
      <trkpt lat="-21.21799" lon="55.50493">
        <ele>443.30505371094</ele>
        <time>2013-01-14T04:50:51Z</time>
      </trkpt>
      <trkpt lat="-21.21797" lon="55.50497">
        <ele>445.22766113281</ele>
        <time>2013-01-14T04:50:53Z</time>
      </trkpt>
      <trkpt lat="-21.21798" lon="55.50498">
        <ele>443.78576660156</ele>
        <time>2013-01-14T04:50:56Z</time>
      </trkpt>
      <trkpt lat="-21.21786" lon="55.50517">
        <ele>442.34387207031</ele>
        <time>2013-01-14T04:51:10Z</time>
      </trkpt>
      <trkpt lat="-21.21785" lon="55.50519">
        <ele>442.34387207031</ele>
        <time>2013-01-14T04:51:11Z</time>
      </trkpt>
      <trkpt lat="-21.21788" lon="55.50528">
        <ele>442.34387207031</ele>
        <time>2013-01-14T04:51:18Z</time>
      </trkpt>
      <trkpt lat="-21.21791" lon="55.50532">
        <ele>440.90185546875</ele>
        <time>2013-01-14T04:51:23Z</time>
      </trkpt>
      <trkpt lat="-21.21795" lon="55.5054">
        <ele>440.90185546875</ele>
        <time>2013-01-14T04:51:34Z</time>
      </trkpt>
      <trkpt lat="-21.21834" lon="55.50488">
        <ele>440.42126464844</ele>
        <time>2013-01-14T04:51:42Z</time>
      </trkpt>
      <trkpt lat="-21.21865" lon="55.50451">
        <ele>438.49853515625</ele>
        <time>2013-01-14T04:51:53Z</time>
      </trkpt>
      <trkpt lat="-21.21942" lon="55.50351">
        <ele>438.01782226562</ele>
        <time>2013-01-14T04:52:01Z</time>
      </trkpt>
      <trkpt lat="-21.21944" lon="55.5035">
        <ele>437.05651855469</ele>
        <time>2013-01-14T04:52:15Z</time>
      </trkpt>
      <trkpt lat="-21.21944" lon="55.50349">
        <ele>436.09521484375</ele>
        <time>2013-01-14T04:52:27Z</time>
      </trkpt>
      <trkpt lat="-21.21953" lon="55.50351">
        <ele>436.09521484375</ele>
        <time>2013-01-14T04:52:47Z</time>
      </trkpt>
      <trkpt lat="-21.21966" lon="55.50328">
        <ele>435.13391113281</ele>
        <time>2013-01-14T04:53:02Z</time>
      </trkpt>
      <trkpt lat="-21.21976" lon="55.50318">
        <ele>433.69189453125</ele>
        <time>2013-01-14T04:53:10Z</time>
      </trkpt>
      <trkpt lat="-21.21979" lon="55.50318">
        <ele>433.69189453125</ele>
        <time>2013-01-14T04:53:13Z</time>
      </trkpt>
      <trkpt lat="-21.21987" lon="55.50317">
        <ele>433.21130371094</ele>
        <time>2013-01-14T04:53:17Z</time>
      </trkpt>
      <trkpt lat="-21.22002" lon="55.50316">
        <ele>432.25</ele>
        <time>2013-01-14T04:53:25Z</time>
      </trkpt>
      <trkpt lat="-21.22036" lon="55.50272">
        <ele>432.25</ele>
        <time>2013-01-14T04:53:36Z</time>
      </trkpt>
      <trkpt lat="-21.22037" lon="55.50269">
        <ele>432.25</ele>
        <time>2013-01-14T04:53:45Z</time>
      </trkpt>
      <trkpt lat="-21.22067" lon="55.50283">
        <ele>431.28857421875</ele>
        <time>2013-01-14T04:54:04Z</time>
      </trkpt>
      <trkpt lat="-21.2208" lon="55.50282">
        <ele>431.28857421875</ele>
        <time>2013-01-14T04:54:16Z</time>
      </trkpt>
      <trkpt lat="-21.22082" lon="55.50276">
        <ele>431.28857421875</ele>
        <time>2013-01-14T04:54:24Z</time>
      </trkpt>
      <trkpt lat="-21.22109" lon="55.50237">
        <ele>430.80798339844</ele>
        <time>2013-01-14T04:54:35Z</time>
      </trkpt>
      <trkpt lat="-21.22138" lon="55.50249">
        <ele>430.32727050781</ele>
        <time>2013-01-14T04:54:49Z</time>
      </trkpt>
      <trkpt lat="-21.22156" lon="55.50257">
        <ele>429.84655761719</ele>
        <time>2013-01-14T04:54:55Z</time>
      </trkpt>
      <trkpt lat="-21.2218" lon="55.50258">
        <ele>428.88537597656</ele>
        <time>2013-01-14T04:55:18Z</time>
      </trkpt>
    </trkseg>
  </trk>
</gpx>